Flag for Japan Weather past 2 weeks in Utsunomiya, Japan

Now
77 °F

Warm.


Feels Like: 78 °F
Forecast: 74 / 87 °F
Wind: 2 mph from North

Location: Mito

Current Time: Jul 30, 2015 at 7:59:24 AM

Latest Report: Jul 30, 2015 at 6:00 AM


Visibility: N/A

Pressure: 29.80 "Hg

Humidity: 90%

Dew point: 74 °F

Location of UtsunomiyaLocation

Historic Weather in Utsunomiya — Graph

°F

Utsunomiya temperature yesterday

Maximum temperature yesterday: 85 °F (at 10:00 AM)
Minimum temperature yesterday: 75 °F (at 4:00 AM)
Average temperature yesterday: 80 °F

Past Weeks' High & Low Weather Summary

 TemperatureHumidityPressure
High93 °F (Jul 26, 1:00 PM)99% (Jul 21, 2:00 AM)29.98 "Hg (Jul 21, 2:00 AM)
Low74 °F (Jul 16, 5:00 AM)47% (Jul 15, 1:00 PM)29.69 "Hg (Jul 28, 3:00 PM)
Average81 °F80%29.82 "Hg
* Reported Jul 15 7:00 AM — Jul 30 6:00 AM, Utsunomiya, Weather by CustomWeather, © 2015

Note: Actual official high and low records may vary slightly from our data, if they occured in-between our weather recording intervals... More about our weather records

Advertising

Utsunomiya weather history for previous 24 hours

 ConditionsComfort  
Time TempWeatherWind HumidityBarometerVisibility
6:00 AM
Thu, Jul 30
77 °FWarm.2 mph90%29.80 "HgN/A
5:00 AM76 °FMild.3 mph93%29.80 "HgN/A
4:00 AM76 °FMild.3 mph92%29.79 "HgN/A
3:00 AM78 °FOvercast.3 mph87%29.78 "Hg6 mi
2:00 AM77 °FWarm.3 mph90%29.79 "HgN/A
1:00 AM78 °FWarm.3 mph90%29.79 "HgN/A
12:00 AM78 °FWarm.3 mph91%29.79 "HgN/A
11:00 PM
Wed, Jul 29
78 °FWarm.3 mph89%29.80 "HgN/A
10:00 PM78 °FWarm.2 mph89%29.80 "HgN/A
9:00 PM79 °FOvercast.1 mph85%29.80 "Hg6 mi
8:00 PM79 °FWarm.2 mph87%29.80 "HgN/A
7:00 PM78 °FWarm.3 mph88%29.79 "HgN/A
6:00 PM79 °FWarm.3 mph86%29.78 "HgN/A
5:00 PM82 °FWarm.7 mph80%29.77 "HgN/A
4:00 PM84 °FWarm.8 mph73%29.76 "HgN/A
3:00 PM85 °FOvercast.6 mph71%29.76 "Hg19 mi
2:00 PM85 °FWarm.9 mph67%29.77 "HgN/A
1:00 PM84 °FWarm.6 mph72%29.77 "HgN/A
12:00 PM84 °FWarm.8 mph68%29.77 "HgN/A
11:00 AM85 °FWarm.6 mph67%29.77 "HgN/A
10:00 AM85 °FWarm.6 mph69%29.78 "HgN/A
9:00 AM84 °FOvercast.5 mph72%29.77 "Hg9 mi
8:00 AM83 °FWarm.5 mph75%29.77 "HgN/A
7:00 AM80 °FWarm.2 mph81%29.76 "HgN/A
Weather by CustomWeather, © 2015

See weather overviewHow to use our weather pages